Weather History for KDFW - December, 2012

Change the Weather History Date:

Thursday, December 27, 2012

  Actual Average Record
Temperature  
Mean Temperature 34 °F 46 °F  
Max Temperature 45 °F 56 °F 82 °F (2005)
Min Temperature 23 °F 36 °F 19 °F (1925)
Degree Days  
Heating Degree Days 31 20  
Month to date heating degree days 347 479  
Since 1 July heating degree days 635 833  
Cooling Degree Days 0 0  
Month to date cooling degree days 28 0  
Year to date cooling degree days 3351 2752  
Moisture  
Dew Point 30 °F    
Average Humidity 77    
Maximum Humidity 89    
Minimum Humidity 65    
Precipitation  
Precipitation 0.01 in 0.07 in 1.26 in (1927)
Month to date precipitation 1.73 2.26  
Year to date precipitation 31.04 35.85  
Snow  
Snow 0.00 in 0.10 in T in (2000)
Month to date snowfall 0.5 0.3  
Since 1 July snowfall 0.5 0.3  
Snow Depth T in    
Sea Level Pressure  
Sea Level Pressure 29.99 in    
Wind  
Wind Speed 7 mph (SE)    
Max Wind Speed 15 mph    
Max Gust Speed 18 mph    
Visibility 8 miles    
Events Rain    
T = Trace of Precipitation, MM = Missing Value Source: NWS Daily Summary

Daily Weather History Graph

Daily Weather History Graph

Search for Another Location

Airport or City:

Trip Planner

Search our weather history database for the weather conditions in past years. The results will help you decide how hot, cold, wet, or windy it might be!

Date:

Astronomy

Dec. 27, 2012 Rise Set
Actual Time 7:29 AM CST 5:29 PM CST
Civil Twilight 7:02 AM CST 5:56 PM CST
Nautical Twilight 6:31 AM CST 6:27 PM CST
Astronomical Twilight 6:01 AM CST 6:57 PM CST
Moon 5:11 PM CST (12/27) 6:43 AM CST (12/27)
Length of Visible Light 10h 54m
Length of Day
9h 59m
Full, 100% of the Moon is Illuminated
Dec 27
Full
Dec 28
Full
Jan 4
Last Quarter
Jan 11
New
Jan 18
First Quarter

Hourly Weather History & Observations

Time (CST) Temp. Windchill Dew Point Humidity Pressure Visibility Wind Dir Wind Speed Gust Speed Precip Events Conditions
12:53 AM 27.0 °F - 19.9 °F 75% 30.13 in 10.0 mi Calm Calm - N/A   Mostly Cloudy
1:53 AM 26.1 °F - 19.0 °F 75% 30.11 in 10.0 mi Calm Calm - N/A   Mostly Cloudy
2:53 AM 24.1 °F 18.2 °F 19.9 °F 84% 30.08 in 10.0 mi SSE 4.6 mph - N/A   Mostly Cloudy
3:53 AM 24.1 °F 18.2 °F 19.9 °F 84% 30.07 in 10.0 mi SE 4.6 mph - N/A   Mostly Cloudy
4:53 AM 25.0 °F 18.1 °F 21.0 °F 85% 30.05 in 10.0 mi SSE 5.8 mph - N/A   Mostly Cloudy
5:53 AM 25.0 °F 17.1 °F 21.9 °F 88% 30.05 in 10.0 mi SE 6.9 mph - N/A   Mostly Cloudy
6:53 AM 26.1 °F 21.9 °F 21.9 °F 84% 30.08 in 10.0 mi East 3.5 mph - N/A   Mostly Cloudy
7:53 AM 24.1 °F 18.2 °F 21.0 °F 88% 30.07 in 7.0 mi ESE 4.6 mph - N/A   Scattered Clouds
8:53 AM 28.0 °F 19.3 °F 25.0 °F 88% 30.07 in 5.0 mi SE 9.2 mph - N/A   Mostly Cloudy
8:59 AM 28.4 °F 19.1 °F 24.8 °F 86% 30.06 in 5.0 mi SE 10.4 mph - N/A   Mostly Cloudy
9:12 AM 28.4 °F 19.7 °F 26.6 °F 93% 30.06 in 5.0 mi SE 9.2 mph - N/A   Mostly Cloudy
9:53 AM 30.9 °F 22.8 °F 27.0 °F 85% 30.08 in 7.0 mi SSE 9.2 mph - N/A   Mostly Cloudy
10:04 AM 30.2 °F 22.6 °F 28.4 °F 93% 30.07 in 6.0 mi SE 8.1 mph - N/A   Mostly Cloudy
10:53 AM 32.0 °F 24.8 °F 28.0 °F 85% 30.07 in 7.0 mi ESE 8.1 mph - N/A   Mostly Cloudy
11:53 AM 35.1 °F 32.2 °F 28.9 °F 78% 30.04 in 9.0 mi ESE 3.5 mph - N/A   Mostly Cloudy
12:53 PM 39.0 °F 34.8 °F 30.9 °F 73% 29.99 in 10.0 mi SE 5.8 mph - N/A   Overcast
1:53 PM 41.0 °F 35.2 °F 30.9 °F 67% 29.94 in 10.0 mi ESE 9.2 mph - N/A   Overcast
2:53 PM 43.0 °F 37.7 °F 33.1 °F 68% 29.92 in 10.0 mi SE 9.2 mph - N/A   Overcast
3:10 PM 44.6 °F 39.7 °F 33.8 °F 66% 29.91 in 10.0 mi SE 9.2 mph - N/A   Overcast
3:53 PM 44.1 °F 39.5 °F 34.0 °F 68% 29.91 in 10.0 mi SE 8.1 mph - N/A   Overcast
4:53 PM 44.1 °F 38.6 °F 35.1 °F 71% 29.91 in 10.0 mi SSE 10.4 mph - N/A   Overcast
5:53 PM 45.0 °F 39.7 °F 36.0 °F 71% 29.90 in 10.0 mi SE 10.4 mph - N/A   Overcast
6:53 PM 44.1 °F 39.0 °F 37.9 °F 79% 29.89 in 10.0 mi SSE 9.2 mph - N/A   Overcast
7:53 PM 44.1 °F 38.6 °F 37.9 °F 79% 29.90 in 10.0 mi SSE 10.4 mph - N/A   Overcast
8:38 PM 44.6 °F 39.2 °F 37.4 °F 76% 29.89 in 10.0 mi SSE 10.4 mph 18.4 mph N/A   Overcast
8:53 PM 44.1 °F 39.0 °F 39.0 °F 82% 29.91 in 10.0 mi SSE 9.2 mph - N/A   Overcast
9:13 PM 44.6 °F 41.4 °F 39.2 °F 81% 29.91 in 8.0 mi SSE 5.8 mph - N/A   Overcast
9:53 PM 44.1 °F 42.5 °F 41.0 °F 89% 29.91 in 6.0 mi SE 3.5 mph - N/A   Overcast
10:30 PM 42.8 °F 40.1 °F 39.2 °F 87% 29.91 in 2.5 mi East 4.6 mph - 0.00 in Rain Light Rain
10:53 PM 42.1 °F 37.1 °F 39.0 °F 89% 29.90 in 3.0 mi ESE 8.1 mph - 0.01 in   Overcast
11:53 PM 42.1 °F 38.4 °F 39.9 °F 92% 29.88 in 3.0 mi ENE 5.8 mph - N/A   Overcast